CGHLW CYQF-CYBW

Flight info

Callsign CGHLW
Flight time 0h 34m
Altitude 8000
Route CYQF DCT ADVOX CYBW
Aircraft PA34/L-SDFGRY/LB1D1

Departure

Time 2026-05-05 23:56
Airport Red Deer Regional Airport (CYQF)

Arrival

Time 2026-05-06 00:30
Airport Calgary / Springbank Airport (CYBW)
Time Latitude Longitude Altitude Speed Heading
2026-05-05 23:46 52.17883 -113.88550 2959 ft 0 kts 119°
2026-05-05 23:48 52.17882 -113.88545 2959 ft 5 kts 113°
2026-05-05 23:48 52.17897 -113.88556 2955 ft 7 kts 291°
2026-05-05 23:48 52.17899 -113.88564 2953 ft 1 kts 273°
2026-05-05 23:48 52.17869 -113.88632 2953 ft 9 kts 225°
2026-05-05 23:49 52.17835 -113.88693 2956 ft 0 kts 256°
2026-05-05 23:49 52.17852 -113.88750 2957 ft 8 kts 328°
2026-05-05 23:50 52.17870 -113.88860 2960 ft 17 kts 282°
2026-05-05 23:50 52.17890 -113.88971 2951 ft 3 kts 352°
2026-05-05 23:50 52.17951 -113.88966 2956 ft 13 kts
2026-05-05 23:50 52.18035 -113.88965 2961 ft 9 kts 360°
2026-05-05 23:51 52.18089 -113.88966 2962 ft 6 kts 355°
2026-05-05 23:51 52.18132 -113.88970 2955 ft 6 kts 360°
2026-05-05 23:51 52.18193 -113.88968 2963 ft 10 kts
2026-05-05 23:51 52.18273 -113.88964 2962 ft 15 kts
2026-05-05 23:52 52.18366 -113.88965 2965 ft 11 kts 359°
2026-05-05 23:52 52.18423 -113.89001 2962 ft 11 kts 277°
2026-05-05 23:52 52.18424 -113.89152 2965 ft 13 kts 272°
2026-05-05 23:52 52.18439 -113.89253 2957 ft 6 kts 345°
2026-05-05 23:53 52.18497 -113.89254 2966 ft 10 kts 360°
2026-05-05 23:53 52.18588 -113.89255 2968 ft 16 kts
2026-05-05 23:53 52.18680 -113.89253 2970 ft 12 kts
2026-05-05 23:53 52.18769 -113.89251 2970 ft 14 kts
2026-05-05 23:54 52.18844 -113.89250 2971 ft 1 kts 310°
2026-05-05 23:54 52.18840 -113.89260 2972 ft 2 kts 189°
2026-05-05 23:54 52.18839 -113.89261 2972 ft 0 kts 179°
2026-05-05 23:55 52.18648 -113.89262 2969 ft 59 kts 182°
2026-05-05 23:55 52.18075 -113.89243 2990 ft 100 kts 180°
2026-05-05 23:55 52.17326 -113.89315 3210 ft 109 kts 176°
2026-05-05 23:55 52.16535 -113.89394 3441 ft 124 kts 179°
2026-05-05 23:56 52.15664 -113.89449 3819 ft 123 kts 178°
2026-05-05 23:56 52.14814 -113.89499 4235 ft 122 kts 179°
2026-05-05 23:56 52.13988 -113.89472 4582 ft 119 kts 158°
2026-05-05 23:56 52.13427 -113.88583 4926 ft 116 kts 131°
2026-05-05 23:57 52.12650 -113.88300 5269 ft 122 kts 185°
2026-05-05 23:57 52.11842 -113.88729 5575 ft 127 kts 220°
2026-05-05 23:57 52.11190 -113.89701 5938 ft 129 kts 219°
2026-05-05 23:57 52.10504 -113.90642 6309 ft 129 kts 218°
2026-05-05 23:58 52.09807 -113.91572 6684 ft 128 kts 218°
2026-05-05 23:58 52.09116 -113.92483 7031 ft 130 kts 220°
2026-05-05 23:58 52.08418 -113.93400 7427 ft 127 kts 221°
2026-05-05 23:58 52.07728 -113.94305 7787 ft 128 kts 223°
2026-05-05 23:59 52.07018 -113.95239 7995 ft 139 kts 223°
2026-05-05 23:59 52.06217 -113.96294 8007 ft 155 kts 223°
2026-05-05 23:59 52.05344 -113.97434 8017 ft 166 kts 222°
2026-05-05 23:59 52.04419 -113.98640 8021 ft 174 kts 222°
2026-05-06 00:00 52.03463 -113.99886 8019 ft 179 kts 222°
2026-05-06 00:00 52.02485 -114.01163 8072 ft 182 kts 222°
2026-05-06 00:00 52.01494 -114.02457 8073 ft 184 kts 222°
2026-05-06 00:00 52.00493 -114.03763 8073 ft 185 kts 221°
2026-05-06 00:01 51.99487 -114.05073 8068 ft 186 kts 221°
2026-05-06 00:01 51.98473 -114.06393 8069 ft 187 kts 221°
2026-05-06 00:01 51.97459 -114.07714 8070 ft 188 kts 221°
2026-05-06 00:01 51.96440 -114.09040 8070 ft 188 kts 221°
2026-05-06 00:02 51.95432 -114.10352 8071 ft 188 kts 221°
2026-05-06 00:02 51.94414 -114.11675 8070 ft 188 kts 221°
2026-05-06 00:02 51.93380 -114.13021 8056 ft 194 kts 222°
2026-05-06 00:02 51.92317 -114.14404 8056 ft 197 kts 222°
2026-05-06 00:03 51.91236 -114.15805 8058 ft 200 kts 222°
2026-05-06 00:03 51.90149 -114.17215 8058 ft 202 kts 221°
2026-05-06 00:03 51.89048 -114.18641 8059 ft 203 kts 221°
2026-05-06 00:03 51.87944 -114.20071 8059 ft 203 kts 221°
2026-05-06 00:04 51.86839 -114.21500 8056 ft 203 kts 221°
2026-05-06 00:04 51.85736 -114.22926 8065 ft 202 kts 221°
2026-05-06 00:04 51.84656 -114.24320 8062 ft 199 kts 221°
2026-05-06 00:04 51.83579 -114.25707 8060 ft 197 kts 222°
2026-05-06 00:05 51.81453 -114.28453 8059 ft 195 kts 221°
2026-05-06 00:05 51.80392 -114.29822 8057 ft 195 kts 221°
2026-05-06 00:05 51.79243 -114.30995 8064 ft 199 kts 200°
2026-05-06 00:06 51.77869 -114.31352 8061 ft 200 kts 187°
2026-05-06 00:06 51.76484 -114.31565 8065 ft 200 kts 188°
2026-05-06 00:06 51.75102 -114.31888 8066 ft 200 kts 191°
2026-05-06 00:06 51.73726 -114.32267 8067 ft 201 kts 192°
2026-05-06 00:07 51.72347 -114.32642 8066 ft 201 kts 191°
2026-05-06 00:07 51.70969 -114.33010 8064 ft 201 kts 191°
2026-05-06 00:07 51.69591 -114.33375 8052 ft 200 kts 191°
2026-05-06 00:07 51.68219 -114.33739 8060 ft 200 kts 191°
2026-05-06 00:08 51.66842 -114.34104 8057 ft 200 kts 191°
2026-05-06 00:08 51.65463 -114.34471 8058 ft 201 kts 191°
2026-05-06 00:08 51.64080 -114.34838 8062 ft 202 kts 191°
2026-05-06 00:08 51.62689 -114.35207 8057 ft 203 kts 191°
2026-05-06 00:09 51.61310 -114.35570 8056 ft 204 kts 191°
2026-05-06 00:09 51.59908 -114.35944 8062 ft 205 kts 191°
2026-05-06 00:09 51.58501 -114.36317 8061 ft 204 kts 191°
2026-05-06 00:09 51.57101 -114.36686 8065 ft 204 kts 190°
2026-05-06 00:10 51.55702 -114.37055 8065 ft 203 kts 191°
2026-05-06 00:10 51.54311 -114.37422 8067 ft 202 kts 191°
2026-05-06 00:10 51.52920 -114.37790 8060 ft 202 kts 191°
2026-05-06 00:10 51.51533 -114.38155 8050 ft 201 kts 191°
2026-05-06 00:11 51.50169 -114.38514 8055 ft 201 kts 191°
2026-05-06 00:11 51.48783 -114.38880 8054 ft 201 kts 191°
2026-05-06 00:11 51.47400 -114.39244 8054 ft 202 kts 191°
2026-05-06 00:11 51.46010 -114.39611 8065 ft 203 kts 191°
2026-05-06 00:12 51.44613 -114.39980 8067 ft 203 kts 191°
2026-05-06 00:12 51.43219 -114.40347 8067 ft 203 kts 191°
2026-05-06 00:12 51.41821 -114.40714 8068 ft 204 kts 191°
2026-05-06 00:12 51.40409 -114.41083 8063 ft 206 kts 191°
2026-05-06 00:13 51.38988 -114.41455 8066 ft 208 kts 190°
2026-05-06 00:13 51.37555 -114.41831 8068 ft 209 kts 191°
2026-05-06 00:13 51.36118 -114.42207 8070 ft 210 kts 191°
2026-05-06 00:13 51.34695 -114.42580 8075 ft 210 kts 191°
2026-05-06 00:14 51.33253 -114.42958 8074 ft 210 kts 191°
2026-05-06 00:14 51.31805 -114.43336 8028 ft 211 kts 191°
2026-05-06 00:14 51.30359 -114.43714 8020 ft 211 kts 191°
2026-05-06 00:14 51.28939 -114.44084 7932 ft 194 kts 191°
2026-05-06 00:15 51.27658 -114.44412 7769 ft 179 kts 190°
2026-05-06 00:15 51.26450 -114.44727 7612 ft 174 kts 190°
2026-05-06 00:15 51.25263 -114.45039 7456 ft 172 kts 190°
2026-05-06 00:15 51.24088 -114.45347 7302 ft 171 kts 189°
2026-05-06 00:16 51.22919 -114.45651 7146 ft 169 kts 189°
2026-05-06 00:16 51.21737 -114.45956 7011 ft 177 kts 188°
2026-05-06 00:16 51.20509 -114.46277 7009 ft 180 kts 188°
2026-05-06 00:16 51.19262 -114.46602 7004 ft 183 kts 188°
2026-05-06 00:17 51.18004 -114.46930 7004 ft 183 kts 188°
2026-05-06 00:17 51.16750 -114.47255 7000 ft 183 kts 188°
2026-05-06 00:17 51.15497 -114.47581 6994 ft 182 kts 188°
2026-05-06 00:17 51.14249 -114.47904 6995 ft 182 kts 188°
2026-05-06 00:18 51.12996 -114.48229 6973 ft 183 kts 188°
2026-05-06 00:18 51.11734 -114.48556 6847 ft 188 kts 188°
2026-05-06 00:18 51.10427 -114.48895 6729 ft 192 kts 188°
2026-05-06 00:18 51.09111 -114.49236 6695 ft 190 kts 188°
2026-05-06 00:19 51.07821 -114.49570 6694 ft 186 kts 188°
2026-05-06 00:19 51.06549 -114.49898 6695 ft 184 kts 188°
2026-05-06 00:19 51.05291 -114.50223 6696 ft 183 kts 188°
2026-05-06 00:19 51.04037 -114.50547 6699 ft 183 kts 188°
2026-05-06 00:20 51.02785 -114.50870 6702 ft 182 kts 188°
2026-05-06 00:20 51.01535 -114.51193 6705 ft 181 kts 188°
2026-05-06 00:20 51.00292 -114.51514 6707 ft 181 kts 187°
2026-05-06 00:20 50.99047 -114.51836 6715 ft 182 kts 188°
2026-05-06 00:21 50.97795 -114.52158 6716 ft 182 kts 188°
2026-05-06 00:21 50.96542 -114.52480 6717 ft 182 kts 187°
2026-05-06 00:21 50.95298 -114.52426 6712 ft 174 kts 163°
2026-05-06 00:21 50.94286 -114.51695 6713 ft 147 kts 142°
2026-05-06 00:22 50.93608 -114.50665 6710 ft 128 kts 123°
2026-05-06 00:22 50.93199 -114.49516 6712 ft 114 kts 108°
2026-05-06 00:22 50.93007 -114.48346 6713 ft 106 kts 92°
2026-05-06 00:22 50.92990 -114.47195 6712 ft 104 kts 86°
2026-05-06 00:23 50.92989 -114.46045 6711 ft 105 kts 86°
2026-05-06 00:23 50.92989 -114.44899 6718 ft 105 kts 88°
2026-05-06 00:23 50.92987 -114.43689 6729 ft 115 kts 88°
2026-05-06 00:23 50.92987 -114.42387 6728 ft 121 kts 88°
2026-05-06 00:24 50.92988 -114.41493 6731 ft 125 kts 87°
2026-05-06 00:24 50.93024 -114.40087 6728 ft 129 kts 76°
2026-05-06 00:24 50.93432 -114.38829 6724 ft 129 kts 49°
2026-05-06 00:24 50.94172 -114.38022 6720 ft 131 kts 21°
2026-05-06 00:25 50.95041 -114.37855 6708 ft 120 kts
2026-05-06 00:25 50.95810 -114.37865 6701 ft 101 kts
2026-05-06 00:25 50.96466 -114.37869 6695 ft 90 kts
2026-05-06 00:25 50.97116 -114.37864 6711 ft 98 kts
2026-05-06 00:26 50.97857 -114.37859 6587 ft 113 kts
2026-05-06 00:26 50.98688 -114.37857 6439 ft 124 kts
2026-05-06 00:26 50.99449 -114.37854 6254 ft 98 kts
2026-05-06 00:26 51.00078 -114.37863 6081 ft 86 kts
2026-05-06 00:27 51.00653 -114.37895 5905 ft 80 kts
2026-05-06 00:27 51.01205 -114.37941 5754 ft 80 kts
2026-05-06 00:27 51.01783 -114.37989 5611 ft 88 kts
2026-05-06 00:27 51.02400 -114.38126 5491 ft 90 kts
2026-05-06 00:28 51.03042 -114.38024 5367 ft 95 kts
2026-05-06 00:28 51.03717 -114.37950 5218 ft 99 kts
2026-05-06 00:28 51.04419 -114.37919 5075 ft 103 kts
2026-05-06 00:28 51.05126 -114.37890 4937 ft 104 kts
2026-05-06 00:29 51.05851 -114.37913 4778 ft 103 kts
2026-05-06 00:29 51.06575 -114.37892 4592 ft 111 kts
2026-05-06 00:29 51.07351 -114.37873 4527 ft 115 kts
2026-05-06 00:29 51.08164 -114.37885 4344 ft 117 kts
2026-05-06 00:30 51.08904 -114.37896 4183 ft 96 kts
2026-05-06 00:30 51.09534 -114.37884 4040 ft 88 kts
2026-05-06 00:30 51.10096 -114.37864 3938 ft 61 kts 359°
2026-05-06 00:30 51.10327 -114.37864 3940 ft 19 kts 16°
2026-05-06 00:31 51.10345 -114.37762 3939 ft 9 kts 90°
2026-05-06 00:31 51.10345 -114.37723 3939 ft 7 kts 91°
2026-05-06 00:31 51.10327 -114.37601 3939 ft 17 kts 132°
2026-05-06 00:31 51.10268 -114.37559 3939 ft 0 kts 174°